Time,TemperatureF,DewpointF,PressureIn,WindDirection,WindDirectionDegrees,WindSpeedMPH,WindSpeedGustMPH,Humidity,HourlyPrecipIn,Conditions,Clouds,dailyrainin,SoftwareType,DateUTC
2013-04-25 00:01:00,44.6,36.2,29.94,NW,315,7.6,9.8,72,0.00,,,0.00,WUHU216HW,2013-04-25 04:01:00,
2013-04-25 00:06:00,44.3,35.8,29.94,NW,315,5.4,9.8,72,0.00,,,0.00,WUHU216HW,2013-04-25 04:06:00,
2013-04-25 00:11:00,43.7,35.3,29.94,NW,315,7.6,13.0,72,0.00,,,0.00,WUHU216HW,2013-04-25 04:11:00,
2013-04-25 00:16:00,43.4,35.3,29.95,NW,315,7.6,13.0,73,0.00,,,0.00,WUHU216HW,2013-04-25 04:16:00,
2013-04-25 00:21:00,43.0,35.3,29.95,NW,315,8.1,12.1,74,0.00,,,0.00,WUHU216HW,2013-04-25 04:21:00,
2013-04-25 00:26:00,42.7,34.7,29.95,WNW,293,5.4,11.4,73,0.00,,,0.00,WUHU216HW,2013-04-25 04:26:00,
2013-04-25 00:31:00,42.3,34.6,29.95,WNW,293,8.7,11.4,74,0.00,,,0.00,WUHU216HW,2013-04-25 04:31:00,
2013-04-25 00:36:00,42.1,34.4,29.95,WNW,293,1.3,10.5,74,0.00,,,0.00,WUHU216HW,2013-04-25 04:36:00,
2013-04-25 00:41:00,41.9,34.6,29.95,NW,315,4.0,9.6,75,0.00,,,0.00,WUHU216HW,2013-04-25 04:41:00,
2013-04-25 00:46:00,41.9,34.9,29.96,WNW,293,3.1,4.7,76,0.00,,,0.00,WUHU216HW,2013-04-25 04:46:00,
2013-04-25 00:51:00,41.8,34.4,29.96,West,270,0.9,5.6,75,0.00,,,0.00,WUHU216HW,2013-04-25 04:51:00,
2013-04-25 00:56:00,41.8,34.4,29.96,NNW,338,0.4,5.6,75,0.00,,,0.00,WUHU216HW,2013-04-25 04:56:00,
2013-04-25 01:01:00,41.8,34.8,29.96,NNW,338,3.4,3.4,76,0.00,,,0.00,WUHU216HW,2013-04-25 05:01:00,
2013-04-25 01:06:00,41.6,34.6,29.95,NW,315,4.3,4.3,76,0.00,,,0.00,WUHU216HW,2013-04-25 05:06:00,
2013-04-25 01:11:00,41.4,34.0,29.95,SW,225,2.0,6.3,75,0.00,,,0.00,WUHU216HW,2013-04-25 05:11:00,
2013-04-25 01:16:00,41.4,33.7,29.94,West,270,2.7,6.3,74,0.00,,,0.00,WUHU216HW,2013-04-25 05:16:00,
2013-04-25 01:21:00,41.2,33.5,29.94,WNW,293,3.1,4.7,74,0.00,,,0.00,WUHU216HW,2013-04-25 05:21:00,
2013-04-25 01:26:00,41.0,33.3,29.94,North,0,0.7,4.3,74,0.00,,,0.00,WUHU216HW,2013-04-25 05:26:00,
2013-04-25 01:31:00,41.0,33.3,29.94,North,0,1.8,4.0,74,0.00,,,0.00,WUHU216HW,2013-04-25 05:31:00,
2013-04-25 01:36:00,41.0,33.0,29.93,NNW,338,3.8,5.6,73,0.00,,,0.00,WUHU216HW,2013-04-25 05:36:00,
2013-04-25 01:41:00,40.9,33.1,29.93,NNE,23,1.6,8.3,74,0.00,,,0.00,WUHU216HW,2013-04-25 05:41:00,
2013-04-25 01:46:00,40.9,32.9,29.92,WNW,293,1.8,8.3,73,0.00,,,0.00,WUHU216HW,2013-04-25 05:46:00,
2013-04-25 01:51:00,40.7,32.3,29.92,WNW,293,5.4,10.5,72,0.00,,,0.00,WUHU216HW,2013-04-25 05:51:00,
2013-04-25 01:56:00,40.7,32.3,29.93,WSW,248,5.4,12.8,72,0.00,,,0.00,WUHU216HW,2013-04-25 05:56:00,
2013-04-25 02:01:00,40.5,31.9,29.93,NW,315,5.6,12.8,71,0.00,,,0.00,WUHU216HW,2013-04-25 06:01:00,
2013-04-25 02:06:00,40.5,31.9,29.93,NW,315,3.6,10.7,71,0.00,,,0.00,WUHU216HW,2013-04-25 06:06:00,
2013-04-25 02:11:00,40.3,32.0,29.93,WNW,293,2.2,9.2,72,0.00,,,0.00,WUHU216HW,2013-04-25 06:11:00,
2013-04-25 02:16:00,40.5,32.1,29.94,NNW,338,1.8,9.2,72,0.00,,,0.00,WUHU216HW,2013-04-25 06:16:00,
2013-04-25 02:21:00,40.3,32.0,29.93,West,270,1.1,4.0,72,0.00,,,0.00,WUHU216HW,2013-04-25 06:21:00,
2013-04-25 02:26:00,40.3,32.3,29.93,NNW,338,2.2,3.4,73,0.00,,,0.00,WUHU216HW,2013-04-25 06:26:00,
2013-04-25 02:31:00,40.1,32.1,29.93,NNW,338,0.0,3.4,73,0.00,,,0.00,WUHU216HW,2013-04-25 06:31:00,
2013-04-25 02:36:00,40.3,32.3,29.94,WSW,248,1.1,2.5,73,0.00,,,0.00,WUHU216HW,2013-04-25 06:36:00,
2013-04-25 02:41:00,40.1,32.5,29.94,West,270,5.4,5.4,74,0.00,,,0.00,WUHU216HW,2013-04-25 06:41:00,
2013-04-25 02:46:00,40.0,32.3,29.94,WNW,293,5.1,11.2,74,0.00,,,0.00,WUHU216HW,2013-04-25 06:46:00,
2013-04-25 02:51:00,39.6,32.0,29.94,West,270,5.1,11.2,74,0.00,,,0.00,WUHU216HW,2013-04-25 06:51:00,
2013-04-25 02:56:00,39.4,32.1,29.94,WSW,248,4.0,9.6,75,0.00,,,0.00,WUHU216HW,2013-04-25 06:56:00,
2013-04-25 03:01:00,39.2,32.0,29.95,WNW,293,1.8,9.6,75,0.00,,,0.00,WUHU216HW,2013-04-25 07:01:00,
2013-04-25 03:06:00,39.2,32.3,29.95,West,270,4.0,7.6,76,0.00,,,0.00,WUHU216HW,2013-04-25 07:06:00,
2013-04-25 03:11:00,39.1,31.8,29.94,West,270,2.2,7.6,75,0.00,,,0.00,WUHU216HW,2013-04-25 07:11:00,
2013-04-25 03:16:00,39.1,32.1,29.94,North,0,1.1,5.4,76,0.00,,,0.00,WUHU216HW,2013-04-25 07:16:00,
2013-04-25 03:21:00,39.1,31.8,29.95,NW,315,1.8,3.4,75,0.00,,,0.00,WUHU216HW,2013-04-25 07:21:00,
2013-04-25 03:26:00,38.9,31.6,29.95,NW,315,6.7,7.2,75,0.00,,,0.00,WUHU216HW,2013-04-25 07:26:00,
2013-04-25 03:31:00,38.9,31.2,29.95,WNW,293,2.7,7.2,74,0.00,,,0.00,WUHU216HW,2013-04-25 07:31:00,
2013-04-25 03:36:00,38.7,31.4,29.95,NNE,23,0.4,6.7,75,0.00,,,0.00,WUHU216HW,2013-04-25 07:36:00,
2013-04-25 03:41:00,38.5,31.0,29.95,NNW,338,0.7,2.9,74,0.00,,,0.00,WUHU216HW,2013-04-25 07:41:00,
2013-04-25 03:46:00,38.5,31.0,29.95,NNW,338,1.1,4.0,74,0.00,,,0.00,WUHU216HW,2013-04-25 07:46:00,
2013-04-25 03:51:00,38.5,31.0,29.96,East,90,1.1,4.0,74,0.00,,,0.00,WUHU216HW,2013-04-25 07:51:00,
2013-04-25 03:56:00,38.3,30.8,29.96,NNW,338,1.1,4.5,74,0.00,,,0.00,WUHU216HW,2013-04-25 07:56:00,
2013-04-25 04:01:00,38.2,30.6,29.96,NNW,338,0.7,4.5,74,0.00,,,0.00,WUHU216HW,2013-04-25 08:01:00,
2013-04-25 04:06:00,38.2,30.6,29.97,ENE,68,1.6,3.4,74,0.00,,,0.00,WUHU216HW,2013-04-25 08:06:00,
2013-04-25 04:11:00,38.0,30.4,29.97,NNW,338,0.4,3.4,74,0.00,,,0.00,WUHU216HW,2013-04-25 08:11:00,
2013-04-25 04:16:00,38.0,30.4,29.97,WSW,248,5.4,7.6,74,0.00,,,0.00,WUHU216HW,2013-04-25 08:16:00,
2013-04-25 04:21:00,37.8,30.2,29.97,NW,315,5.6,7.6,74,0.00,,,0.00,WUHU216HW,2013-04-25 08:21:00,
2013-04-25 04:26:00,37.6,30.4,29.97,NW,315,5.4,8.1,75,0.00,,,0.00,WUHU216HW,2013-04-25 08:26:00,
2013-04-25 04:31:00,37.4,30.2,29.97,NW,315,3.6,8.1,75,0.00,,,0.00,WUHU216HW,2013-04-25 08:31:00,
2013-04-25 04:36:00,37.4,30.6,29.97,NNW,338,0.7,6.5,76,0.00,,,0.00,WUHU216HW,2013-04-25 08:36:00,
2013-04-25 04:41:00,37.4,30.6,29.97,NW,315,0.7,4.0,76,0.00,,,0.00,WUHU216HW,2013-04-25 08:41:00,
2013-04-25 04:46:00,37.6,30.4,29.97,NNE,23,0.4,2.7,75,0.00,,,0.00,WUHU216HW,2013-04-25 08:46:00,
2013-04-25 04:51:00,37.6,30.4,29.97,SSW,203,0.9,2.0,75,0.00,,,0.00,WUHU216HW,2013-04-25 08:51:00,
2013-04-25 04:56:00,37.6,30.1,29.97,NNE,23,1.6,2.0,74,0.00,,,0.00,WUHU216HW,2013-04-25 08:56:00,
2013-04-25 05:01:00,37.4,29.9,29.97,NW,315,5.4,5.4,74,0.00,,,0.00,WUHU216HW,2013-04-25 09:01:00,
2013-04-25 05:06:00,37.1,29.3,29.97,NNW,338,3.6,5.6,73,0.00,,,0.00,WUHU216HW,2013-04-25 09:06:00,
2013-04-25 05:11:00,36.9,29.1,29.97,NNW,338,4.0,6.3,73,0.00,,,0.00,WUHU216HW,2013-04-25 09:11:00,
2013-04-25 05:16:00,36.9,29.3,29.97,North,0,0.9,6.3,74,0.00,,,0.00,WUHU216HW,2013-04-25 09:16:00,
2013-04-25 05:21:00,36.7,29.2,29.97,NNE,23,2.5,4.7,74,0.00,,,0.00,WUHU216HW,2013-04-25 09:21:00,
2013-04-25 05:26:00,36.5,29.3,29.97,WNW,293,0.7,7.4,75,0.00,,,0.00,WUHU216HW,2013-04-25 09:26:00,
2013-04-25 05:31:00,36.4,28.8,29.97,NNW,338,5.4,7.4,74,0.00,,,0.00,WUHU216HW,2013-04-25 09:31:00,
2013-04-25 05:36:00,36.4,29.2,29.97,WSW,248,6.5,6.5,75,0.00,,,0.00,WUHU216HW,2013-04-25 09:36:00,
2013-04-25 05:41:00,36.4,28.8,29.97,NNW,338,0.9,7.2,74,0.00,,,0.00,WUHU216HW,2013-04-25 09:41:00,
2013-04-25 05:46:00,36.2,29.0,29.97,North,0,3.6,7.2,75,0.00,,,0.00,WUHU216HW,2013-04-25 09:46:00,
2013-04-25 05:51:00,36.0,28.8,29.97,NNW,338,5.1,6.3,75,0.00,,,0.00,WUHU216HW,2013-04-25 09:51:00,
2013-04-25 05:56:00,35.8,28.6,29.97,NW,315,1.3,5.6,75,0.00,,,0.00,WUHU216HW,2013-04-25 09:56:00,
2013-04-25 06:01:00,35.8,29.0,29.97,NW,315,2.5,5.8,76,0.00,,,0.00,WUHU216HW,2013-04-25 10:01:00,
2013-04-25 06:06:00,35.6,28.8,29.98,NW,315,3.4,5.8,76,0.00,,,0.00,WUHU216HW,2013-04-25 10:06:00,
2013-04-25 06:11:00,35.6,28.8,29.98,NNW,338,1.6,4.3,76,0.00,,,0.00,WUHU216HW,2013-04-25 10:11:00,
2013-04-25 06:16:00,35.6,28.8,29.98,WNW,293,4.9,4.9,76,0.00,,,0.00,WUHU216HW,2013-04-25 10:16:00,
2013-04-25 06:21:00,35.5,28.6,29.98,NW,315,2.9,4.9,76,0.00,,,0.00,WUHU216HW,2013-04-25 10:21:00,
2013-04-25 06:26:00,35.3,28.5,29.98,NNW,338,3.6,4.9,76,0.00,,,0.00,WUHU216HW,2013-04-25 10:26:00,
2013-04-25 06:31:00,35.3,28.5,29.99,NNW,338,3.1,4.3,76,0.00,,,0.00,WUHU216HW,2013-04-25 10:31:00,
2013-04-25 06:36:00,35.3,28.5,29.99,NNW,338,3.4,4.3,76,0.00,,,0.00,WUHU216HW,2013-04-25 10:36:00,
2013-04-25 06:41:00,35.3,28.5,29.99,NNW,338,1.8,5.4,76,0.00,,,0.00,WUHU216HW,2013-04-25 10:41:00,
2013-04-25 06:46:00,35.3,28.5,29.99,NW,315,1.8,5.4,76,0.00,,,0.00,WUHU216HW,2013-04-25 10:46:00,
2013-04-25 06:51:00,35.1,28.3,29.99,NNW,338,1.3,4.0,76,0.00,,,0.00,WUHU216HW,2013-04-25 10:51:00,
2013-04-25 06:56:00,35.1,28.3,29.99,SSE,158,2.0,4.7,76,0.00,,,0.00,WUHU216HW,2013-04-25 10:56:00,
2013-04-25 07:01:00,35.1,28.3,29.99,NNW,338,0.4,4.7,76,0.00,,,0.00,WUHU216HW,2013-04-25 11:01:00,
2013-04-25 07:06:00,35.1,28.3,29.99,NE,45,1.6,5.8,76,0.00,,,0.00,WUHU216HW,2013-04-25 11:06:00,
2013-04-25 07:11:00,35.1,28.3,29.99,NNW,338,4.0,5.8,76,0.00,,,0.00,WUHU216HW,2013-04-25 11:11:00,
2013-04-25 07:16:00,35.1,28.3,29.99,NNE,23,4.0,6.0,76,0.00,,,0.00,WUHU216HW,2013-04-25 11:16:00,
2013-04-25 07:21:00,35.1,28.3,29.99,NNW,338,0.4,6.0,76,0.00,,,0.00,WUHU216HW,2013-04-25 11:21:00,
2013-04-25 07:26:00,35.3,28.1,29.99,North,0,0.2,4.9,75,0.00,,,0.00,WUHU216HW,2013-04-25 11:26:00,
2013-04-25 07:31:00,35.3,28.1,30.00,NW,315,4.0,5.1,75,0.00,,,0.00,WUHU216HW,2013-04-25 11:31:00,
2013-04-25 07:37:00,35.3,27.7,30.00,NNW,338,1.6,6.0,74,0.00,,,0.00,WUHU216HW,2013-04-25 11:37:00,
2013-04-25 07:42:00,35.3,28.1,30.01,NNW,338,4.0,6.0,75,0.00,,,0.00,WUHU216HW,2013-04-25 11:42:00,
2013-04-25 07:47:00,35.3,27.7,30.01,NW,315,4.7,8.5,74,0.00,,,0.00,WUHU216HW,2013-04-25 11:47:00,
2013-04-25 07:52:00,35.6,28.1,30.01,WNW,293,4.0,8.5,74,0.00,,,0.00,WUHU216HW,2013-04-25 11:52:00,
2013-04-25 07:57:00,35.6,27.8,30.02,NW,315,4.0,4.7,73,0.00,,,0.00,WUHU216HW,2013-04-25 11:57:00,
2013-04-25 08:02:00,35.8,28.0,30.02,WNW,293,5.1,5.4,73,0.00,,,0.00,WUHU216HW,2013-04-25 12:02:00,
2013-04-25 08:07:00,36.0,28.2,30.02,NW,315,6.3,6.3,73,0.00,,,0.00,WUHU216HW,2013-04-25 12:07:00,
2013-04-25 08:12:00,36.2,28.4,30.02,WNW,293,4.9,6.3,73,0.00,,,0.00,WUHU216HW,2013-04-25 12:12:00,
2013-04-25 08:17:00,36.4,28.5,30.02,NNW,338,1.8,6.3,73,0.00,,,0.00,WUHU216HW,2013-04-25 12:17:00,
2013-04-25 08:22:00,36.5,28.4,30.03,NW,315,5.6,7.6,72,0.00,,,0.00,WUHU216HW,2013-04-25 12:22:00,
2013-04-25 08:27:00,36.5,28.1,30.03,NNW,338,1.1,7.6,71,0.00,,,0.00,WUHU216HW,2013-04-25 12:27:00,
2013-04-25 08:32:00,36.9,28.5,30.03,NNW,338,1.6,5.6,71,0.00,,,0.00,WUHU216HW,2013-04-25 12:32:00,
2013-04-25 08:37:00,37.1,28.9,30.03,NNW,338,1.3,2.5,72,0.00,,,0.00,WUHU216HW,2013-04-25 12:37:00,
2013-04-25 08:42:00,37.4,29.0,30.03,NNW,338,1.1,2.5,71,0.00,,,0.00,WUHU216HW,2013-04-25 12:42:00,
2013-04-25 08:47:00,37.8,29.3,30.04,NW,315,1.1,2.5,71,0.00,,,0.00,WUHU216HW,2013-04-25 12:47:00,
2013-04-25 08:52:00,38.2,29.3,30.04,ENE,68,0.4,2.5,70,0.00,,,0.00,WUHU216HW,2013-04-25 12:52:00,
2013-04-25 08:57:00,38.7,29.3,30.04,NNW,338,1.3,2.7,69,0.00,,,0.00,WUHU216HW,2013-04-25 12:57:00,
2013-04-25 09:02:00,39.8,30.4,30.04,NE,45,0.4,3.4,69,0.00,,,0.00,WUHU216HW,2013-04-25 13:02:00,
2013-04-25 09:07:00,40.7,31.0,30.04,NNE,23,1.1,3.4,68,0.00,,,0.00,WUHU216HW,2013-04-25 13:07:00,
2013-04-25 09:12:00,41.9,31.8,30.04,East,90,0.9,1.8,67,0.00,,,0.00,WUHU216HW,2013-04-25 13:12:00,
2013-04-25 09:17:00,43.4,33.6,30.04,WNW,293,1.1,1.8,68,0.00,,,0.00,WUHU216HW,2013-04-25 13:17:00,
2013-04-25 09:22:00,43.6,32.6,30.05,SSE,158,1.1,2.2,65,0.00,,,0.00,WUHU216HW,2013-04-25 13:22:00,
2013-04-25 09:27:00,43.2,32.2,30.04,WSW,248,2.9,2.9,65,0.00,,,0.00,WUHU216HW,2013-04-25 13:27:00,
2013-04-25 09:32:00,43.2,31.8,30.04,WSW,248,1.8,2.9,64,0.00,,,0.00,WUHU216HW,2013-04-25 13:32:00,
2013-04-25 09:37:00,43.6,31.4,30.04,ESE,113,1.1,2.9,62,0.00,,,0.00,WUHU216HW,2013-04-25 13:37:00,
2013-04-25 09:42:00,43.7,32.0,30.04,West,270,0.9,2.5,63,0.00,,,0.00,WUHU216HW,2013-04-25 13:42:00,
2013-04-25 09:47:00,44.3,32.5,30.05,East,90,1.1,1.1,63,0.00,,,0.00,WUHU216HW,2013-04-25 13:47:00,
2013-04-25 09:52:00,44.6,32.0,30.05,SE,135,0.7,2.2,61,0.00,,,0.00,WUHU216HW,2013-04-25 13:52:00,
2013-04-25 09:57:00,44.3,30.9,30.04,NNW,338,2.0,2.5,59,0.00,,,0.00,WUHU216HW,2013-04-25 13:57:00,
2013-04-25 10:02:00,45.0,32.8,30.04,SW,225,0.4,2.5,62,0.00,,,0.00,WUHU216HW,2013-04-25 14:02:00,
2013-04-25 10:07:00,45.7,31.3,30.04,NNE,23,1.1,2.5,57,0.00,,,0.00,WUHU216HW,2013-04-25 14:07:00,
2013-04-25 10:12:00,46.3,32.2,30.04,East,90,1.1,2.2,58,0.00,,,0.00,WUHU216HW,2013-04-25 14:12:00,
2013-04-25 10:17:00,47.0,33.0,30.04,WSW,248,2.5,2.7,58,0.00,,,0.00,WUHU216HW,2013-04-25 14:17:00,
2013-04-25 10:22:00,47.7,34.1,30.04,SW,225,1.6,3.4,59,0.00,,,0.00,WUHU216HW,2013-04-25 14:22:00,
2013-04-25 10:27:00,47.9,32.4,30.05,WNW,293,1.1,3.4,55,0.00,,,0.00,WUHU216HW,2013-04-25 14:27:00,
2013-04-25 10:32:00,48.1,33.5,30.05,WNW,293,0.7,2.5,57,0.00,,,0.00,WUHU216HW,2013-04-25 14:32:00,
2013-04-25 10:37:00,48.6,32.1,30.05,SE,135,2.2,3.4,53,0.00,,,0.00,WUHU216HW,2013-04-25 14:37:00,
2013-04-25 10:42:00,48.6,32.1,30.05,NNE,23,2.5,3.4,53,0.00,,,0.00,WUHU216HW,2013-04-25 14:42:00,
2013-04-25 10:47:00,48.2,31.3,30.05,ESE,113,2.7,3.1,52,0.00,,,0.00,WUHU216HW,2013-04-25 14:47:00,
2013-04-25 10:52:00,48.4,32.5,30.05,East,90,1.6,3.4,54,0.00,,,0.00,WUHU216HW,2013-04-25 14:52:00,
2013-04-25 10:57:00,49.0,32.0,30.05,SE,135,2.0,3.4,52,0.00,,,0.00,WUHU216HW,2013-04-25 14:57:00,
2013-04-25 11:02:00,49.5,33.5,30.04,NNW,338,0.4,3.1,54,0.00,,,0.00,WUHU216HW,2013-04-25 15:02:00,
2013-04-25 11:07:00,50.8,34.2,30.05,SE,135,2.0,2.9,53,0.00,,,0.00,WUHU216HW,2013-04-25 15:07:00,
2013-04-25 11:12:00,52.2,34.2,30.05,West,270,1.8,3.1,50,0.00,,,0.00,WUHU216HW,2013-04-25 15:12:00,
2013-04-25 11:17:00,52.2,34.7,30.04,South,180,1.3,3.1,51,0.00,,,0.00,WUHU216HW,2013-04-25 15:17:00,
2013-04-25 11:22:00,53.6,35.9,30.04,SSW,203,2.5,4.3,51,0.00,,,0.00,WUHU216HW,2013-04-25 15:22:00,
2013-04-25 11:27:00,53.3,33.0,30.04,WNW,293,2.0,4.3,46,0.00,,,0.00,WUHU216HW,2013-04-25 15:27:00,
2013-04-25 11:32:00,53.8,33.4,30.05,NW,315,5.4,5.4,46,0.00,,,0.00,WUHU216HW,2013-04-25 15:32:00,
2013-04-25 11:37:00,54.2,33.1,30.05,East,90,1.6,5.4,45,0.00,,,0.00,WUHU216HW,2013-04-25 15:37:00,
2013-04-25 11:42:00,53.6,32.1,30.05,NE,45,1.3,5.4,44,0.00,,,0.00,WUHU216HW,2013-04-25 15:42:00,
2013-04-25 11:47:00,54.2,33.8,30.05,WNW,293,2.0,4.0,46,0.00,,,0.00,WUHU216HW,2013-04-25 15:47:00,
2013-04-25 11:52:00,55.6,33.9,30.05,ESE,113,0.9,4.3,44,0.00,,,0.00,WUHU216HW,2013-04-25 15:52:00,
2013-04-25 11:57:00,56.5,34.7,30.05,WSW,248,2.5,4.3,44,0.00,,,0.00,WUHU216HW,2013-04-25 15:57:00,
2013-04-25 12:02:00,57.2,36.5,30.06,SSW,203,2.5,5.4,46,0.00,,,0.00,WUHU216HW,2013-04-25 16:02:00,
2013-04-25 12:07:00,57.8,36.5,30.06,SW,225,1.8,5.8,45,0.00,,,0.00,WUHU216HW,2013-04-25 16:07:00,
2013-04-25 12:12:00,57.1,35.3,30.06,WSW,248,2.9,5.8,44,0.00,,,0.00,WUHU216HW,2013-04-25 16:12:00,
2013-04-25 12:17:00,57.2,33.7,30.06,North,0,1.8,5.4,41,0.00,,,0.00,WUHU216HW,2013-04-25 16:17:00,
2013-04-25 12:22:00,57.2,31.7,30.06,ENE,68,1.1,4.7,38,0.00,,,0.00,WUHU216HW,2013-04-25 16:22:00,
2013-04-25 12:27:00,58.3,35.8,30.05,WNW,293,2.2,4.9,43,0.00,,,0.00,WUHU216HW,2013-04-25 16:27:00,
2013-04-25 12:32:00,59.4,36.2,30.05,WSW,248,5.1,5.4,42,0.00,,,0.00,WUHU216HW,2013-04-25 16:32:00,
2013-04-25 12:37:00,59.9,37.3,30.05,WSW,248,2.5,6.3,43,0.00,,,0.00,WUHU216HW,2013-04-25 16:37:00,
2013-04-25 12:42:00,61.2,36.0,30.04,South,180,1.8,6.3,39,0.00,,,0.00,WUHU216HW,2013-04-25 16:42:00,
2013-04-25 12:47:00,61.2,35.3,30.06,SSW,203,1.8,3.6,38,0.00,,,0.00,WUHU216HW,2013-04-25 16:47:00,
2013-04-25 12:52:00,61.7,37.2,30.07,SSW,203,1.3,3.6,40,0.00,,,0.00,WUHU216HW,2013-04-25 16:52:00,
2013-04-25 12:57:00,63.2,34.1,30.07,SE,135,2.2,4.5,34,0.00,,,0.00,WUHU216HW,2013-04-25 16:57:00,
2013-04-25 13:02:00,63.5,36.6,30.06,WSW,248,1.3,4.5,37,0.00,,,0.00,WUHU216HW,2013-04-25 17:02:00,
2013-04-25 13:07:00,63.7,35.4,30.06,NE,45,3.4,4.5,35,0.00,,,0.00,WUHU216HW,2013-04-25 17:07:00,
2013-04-25 13:12:00,62.8,35.3,30.06,South,180,3.4,5.1,36,0.00,,,0.00,WUHU216HW,2013-04-25 17:12:00,
2013-04-25 13:17:00,62.8,35.3,30.06,West,270,3.6,5.1,36,0.00,,,0.00,WUHU216HW,2013-04-25 17:17:00,
2013-04-25 13:22:00,63.7,37.5,30.06,SW,225,2.2,3.8,38,0.00,,,0.00,WUHU216HW,2013-04-25 17:22:00,
2013-04-25 13:27:00,64.4,34.6,30.05,SSE,158,4.3,4.3,33,0.00,,,0.00,WUHU216HW,2013-04-25 17:27:00,
2013-04-25 13:32:00,64.1,37.1,30.05,WSW,248,5.4,5.4,37,0.00,,,0.00,WUHU216HW,2013-04-25 17:32:00,
2013-04-25 13:37:00,64.4,37.4,30.05,West,270,2.0,5.4,37,0.00,,,0.00,WUHU216HW,2013-04-25 17:37:00,
2013-04-25 13:42:00,65.3,38.3,30.05,WSW,248,1.8,5.4,37,0.00,,,0.00,WUHU216HW,2013-04-25 17:42:00,
2013-04-25 13:47:00,66.1,38.2,30.05,West,270,3.1,4.7,36,0.00,,,0.00,WUHU216HW,2013-04-25 17:47:00,
2013-04-25 13:52:00,65.7,35.7,30.04,WSW,248,1.1,4.0,33,0.00,,,0.00,WUHU216HW,2013-04-25 17:52:00,
2013-04-25 13:57:00,66.2,38.3,30.04,SE,135,2.7,4.5,36,0.00,,,0.00,WUHU216HW,2013-04-25 17:57:00,
2013-04-25 14:02:00,65.9,37.3,30.04,South,180,2.5,4.5,35,0.00,,,0.00,WUHU216HW,2013-04-25 18:02:00,
2013-04-25 14:07:00,65.9,37.3,30.04,WSW,248,4.7,5.4,35,0.00,,,0.00,WUHU216HW,2013-04-25 18:07:00,
2013-04-25 14:12:00,65.7,34.3,30.04,ESE,113,1.6,6.9,31,0.00,,,0.00,WUHU216HW,2013-04-25 18:12:00,
2013-04-25 14:17:00,65.2,35.2,30.04,WSW,248,2.5,6.9,33,0.00,,,0.00,WUHU216HW,2013-04-25 18:17:00,
2013-04-25 14:22:00,65.3,34.7,30.04,SSE,158,2.0,5.4,32,0.00,,,0.00,WUHU216HW,2013-04-25 18:22:00,
2013-04-25 14:27:00,65.5,35.6,30.04,NNE,23,1.1,3.8,33,0.00,,,0.00,WUHU216HW,2013-04-25 18:27:00,
2013-04-25 14:32:00,65.9,35.1,30.03,SE,135,2.7,3.4,32,0.00,,,0.00,WUHU216HW,2013-04-25 18:32:00,
2013-04-25 14:37:00,65.5,35.6,30.04,SSW,203,3.4,5.4,33,0.00,,,0.00,WUHU216HW,2013-04-25 18:37:00,
2013-04-25 14:42:00,65.3,33.2,30.03,SE,135,2.5,5.4,30,0.00,,,0.00,WUHU216HW,2013-04-25 18:42:00,
2013-04-25 14:47:00,64.3,32.9,30.03,WSW,248,1.8,4.3,31,0.00,,,0.00,WUHU216HW,2013-04-25 18:47:00,
2013-04-25 14:52:00,64.8,35.7,30.03,West,270,3.8,5.4,34,0.00,,,0.00,WUHU216HW,2013-04-25 18:52:00,
2013-04-25 14:57:00,65.0,33.6,30.03,SE,135,2.5,5.4,31,0.00,,,0.00,WUHU216HW,2013-04-25 18:57:00,
2013-04-25 15:02:00,65.2,33.8,30.03,SSE,158,1.8,3.8,31,0.00,,,0.00,WUHU216HW,2013-04-25 19:02:00,
2013-04-25 15:07:00,65.0,33.6,30.03,SSE,158,2.5,4.7,31,0.00,,,0.00,WUHU216HW,2013-04-25 19:07:00,
2013-04-25 15:12:00,64.8,32.8,30.03,SSW,203,3.8,4.7,30,0.00,,,0.00,WUHU216HW,2013-04-25 19:12:00,
2013-04-25 15:17:00,65.3,33.9,30.03,SSW,203,2.5,5.8,31,0.00,,,0.00,WUHU216HW,2013-04-25 19:17:00,
2013-04-25 15:22:00,65.3,33.9,30.03,SSW,203,2.5,5.8,31,0.00,,,0.00,WUHU216HW,2013-04-25 19:22:00,
2013-04-25 15:47:00,64.8,34.9,30.02,West,270,2.5,2.5,33,0.00,,,0.00,WUHU216HW,2013-04-25 19:47:00,
2013-04-25 15:52:00,64.8,34.9,30.02,West,270,2.5,2.5,33,0.00,,,0.00,WUHU216HW,2013-04-25 19:52:00,
2013-04-25 16:00:00,65.2,34.5,30.01,SSE,158,1.8,1.8,32,0.00,,,0.00,WUHU216HW,2013-04-25 20:00:00,
2013-04-25 16:05:00,65.2,34.5,30.01,SSE,158,1.8,1.8,32,0.00,,,0.00,WUHU216HW,2013-04-25 20:05:00,
2013-04-25 16:30:00,63.7,28.8,30.01,West,270,4.0,4.0,27,0.00,,,0.00,WUHU216HW,2013-04-25 20:30:00,
2013-04-25 16:35:00,63.7,28.8,30.01,West,270,4.0,4.0,27,0.00,,,0.00,WUHU216HW,2013-04-25 20:35:00,
2013-04-25 16:46:00,62.1,19.1,30.01,WNW,293,9.2,9.2,19,0.00,,,0.00,WUHU216HW,2013-04-25 20:46:00,
2013-04-25 16:51:00,61.0,19.8,30.01,West,270,6.3,11.6,20,0.00,,,0.00,WUHU216HW,2013-04-25 20:51:00,
2013-04-25 16:56:00,60.3,21.1,30.01,NW,315,8.7,11.6,22,0.00,,,0.00,WUHU216HW,2013-04-25 20:56:00,
2013-04-25 17:01:00,60.5,22.1,30.01,WNW,293,5.8,11.2,23,0.00,,,0.00,WUHU216HW,2013-04-25 21:01:00,
2013-04-25 17:06:00,60.3,20.1,30.01,WNW,293,4.0,11.4,21,0.00,,,0.00,WUHU216HW,2013-04-25 21:06:00,
2013-04-25 17:11:00,60.1,19.9,30.01,NW,315,13.2,13.2,21,0.00,,,0.00,WUHU216HW,2013-04-25 21:11:00,
2013-04-25 17:16:00,59.6,19.4,30.01,NW,315,9.2,13.2,21,0.00,,,0.00,WUHU216HW,2013-04-25 21:16:00,
2013-04-25 17:21:00,59.4,19.3,30.02,WNW,293,11.4,13.2,21,0.00,,,0.00,WUHU216HW,2013-04-25 21:21:00,
2013-04-25 17:26:00,59.6,21.4,30.02,NW,315,4.5,11.9,23,0.00,,,0.00,WUHU216HW,2013-04-25 21:26:00,
2013-04-25 17:31:00,59.4,19.3,30.02,NW,315,7.4,11.9,21,0.00,,,0.00,WUHU216HW,2013-04-25 21:31:00,
2013-04-25 17:36:00,59.0,20.0,30.02,NNW,338,7.4,13.2,22,0.00,,,0.00,WUHU216HW,2013-04-25 21:36:00,
2013-04-25 17:41:00,58.9,19.8,30.02,NW,315,6.9,13.2,22,0.00,,,0.00,WUHU216HW,2013-04-25 21:41:00,
2013-04-25 17:46:00,58.7,14.6,30.02,NW,315,7.4,9.2,18,0.00,,,0.00,WUHU216HW,2013-04-25 21:46:00,
2013-04-25 17:51:00,58.7,19.6,30.02,WSW,248,3.8,9.2,22,0.00,,,0.00,WUHU216HW,2013-04-25 21:51:00,
2013-04-25 17:56:00,58.7,18.7,30.02,WNW,293,4.0,7.4,21,0.00,,,0.00,WUHU216HW,2013-04-25 21:56:00,
2013-04-25 18:01:00,58.7,20.6,30.02,WSW,248,3.1,5.6,23,0.00,,,0.00,WUHU216HW,2013-04-25 22:01:00,
2013-04-25 18:06:00,58.9,21.8,30.03,WSW,248,3.4,5.6,24,0.00,,,0.00,WUHU216HW,2013-04-25 22:06:00,
2013-04-25 18:11:00,58.9,21.8,30.03,SW,225,2.5,4.9,24,0.00,,,0.00,WUHU216HW,2013-04-25 22:11:00,
2013-04-25 18:16:00,58.7,20.6,30.03,WNW,293,2.9,6.0,23,0.00,,,0.00,WUHU216HW,2013-04-25 22:16:00,
2013-04-25 18:21:00,58.3,21.2,30.03,WSW,248,2.5,6.0,24,0.00,,,0.00,WUHU216HW,2013-04-25 22:21:00,
2013-04-25 18:26:00,57.8,19.9,30.03,NW,315,6.3,9.4,23,0.00,,,0.00,WUHU216HW,2013-04-25 22:26:00,
2013-04-25 18:31:00,57.4,20.5,30.03,NW,315,4.5,9.4,24,0.00,,,0.00,WUHU216HW,2013-04-25 22:31:00,
2013-04-25 18:36:00,57.1,20.3,30.03,West,270,4.7,7.6,24,0.00,,,0.00,WUHU216HW,2013-04-25 22:36:00,
2013-04-25 18:41:00,56.9,20.1,30.03,WNW,293,6.0,7.6,24,0.00,,,0.00,WUHU216HW,2013-04-25 22:41:00,
2013-04-25 18:46:00,56.5,18.8,30.03,NW,315,5.4,7.4,23,0.00,,,0.00,WUHU216HW,2013-04-25 22:46:00,
2013-04-25 18:51:00,56.5,20.7,30.03,WNW,293,4.7,7.2,25,0.00,,,0.00,WUHU216HW,2013-04-25 22:51:00,
2013-04-25 18:56:00,56.0,20.3,30.03,West,270,3.6,10.5,25,0.00,,,0.00,WUHU216HW,2013-04-25 22:56:00,
2013-04-25 19:01:00,56.0,22.1,30.03,WSW,248,4.3,10.5,27,0.00,,,0.00,WUHU216HW,2013-04-25 23:01:00,
2013-04-25 19:06:00,55.8,22.0,30.04,NW,315,6.9,6.9,27,0.00,,,0.00,WUHU216HW,2013-04-25 23:06:00,
2013-04-25 19:11:00,55.6,21.9,30.03,WNW,293,3.1,6.9,27,0.00,,,0.00,WUHU216HW,2013-04-25 23:11:00,
2013-04-25 19:16:00,55.3,21.5,30.04,WNW,293,4.7,6.9,27,0.00,,,0.00,WUHU216HW,2013-04-25 23:16:00,
2013-04-25 19:21:00,55.1,22.3,30.04,NW,315,6.7,6.7,28,0.00,,,0.00,WUHU216HW,2013-04-25 23:21:00,
2013-04-25 19:26:00,54.5,21.9,30.04,NNW,338,6.0,6.9,28,0.00,,,0.00,WUHU216HW,2013-04-25 23:26:00,
2013-04-25 19:31:00,54.4,21.7,30.04,NW,315,5.4,6.9,28,0.00,,,0.00,WUHU216HW,2013-04-25 23:31:00,
2013-04-25 19:36:00,54.2,22.5,30.05,NW,315,3.6,6.5,29,0.00,,,0.00,WUHU216HW,2013-04-25 23:36:00,
2013-04-25 19:41:00,53.8,22.2,30.05,WNW,293,2.2,5.4,29,0.00,,,0.00,WUHU216HW,2013-04-25 23:41:00,
2013-04-25 19:46:00,53.5,22.9,30.05,WSW,248,3.8,4.0,30,0.00,,,0.00,WUHU216HW,2013-04-25 23:46:00,
2013-04-25 19:51:00,52.9,22.4,30.05,WNW,293,4.7,6.9,30,0.00,,,0.00,WUHU216HW,2013-04-25 23:51:00,
2013-04-25 19:56:00,52.6,22.8,30.05,NW,315,4.7,6.9,31,0.00,,,0.00,WUHU216HW,2013-04-25 23:56:00,
2013-04-25 20:01:00,52.6,22.8,30.05,NW,315,2.5,6.5,31,0.00,,,0.00,WUHU216HW,2013-04-26 00:01:00,
2013-04-25 20:06:00,52.4,23.3,30.06,NW,315,4.0,6.5,32,0.00,,,0.00,WUHU216HW,2013-04-26 00:06:00,
2013-04-25 20:11:00,52.2,23.1,30.06,NW,315,2.0,4.9,32,0.00,,,0.00,WUHU216HW,2013-04-26 00:11:00,
2013-04-25 20:16:00,51.7,23.3,30.07,NW,315,2.9,4.3,33,0.00,,,0.00,WUHU216HW,2013-04-26 00:16:00,
2013-04-25 20:21:00,51.5,23.9,30.07,WNW,293,1.6,4.5,34,0.00,,,0.00,WUHU216HW,2013-04-26 00:21:00,
2013-04-25 20:26:00,50.9,23.3,30.07,West,270,2.0,4.5,34,0.00,,,0.00,WUHU216HW,2013-04-26 00:26:00,
2013-04-25 20:32:00,50.8,23.2,30.08,WSW,248,1.1,3.6,34,0.00,,,0.00,WUHU216HW,2013-04-26 00:32:00,
2013-04-25 20:36:00,50.6,23.1,30.08,West,270,1.1,3.6,34,0.00,,,0.00,WUHU216HW,2013-04-26 00:36:00,
2013-04-25 20:42:00,50.4,23.6,30.08,West,270,1.1,2.0,35,0.00,,,0.00,WUHU216HW,2013-04-26 00:42:00,
2013-04-25 20:46:00,50.0,23.2,30.08,West,270,0.4,1.1,35,0.00,,,0.00,WUHU216HW,2013-04-26 00:46:00,
2013-04-25 20:52:00,49.7,23.6,30.07,West,270,0.7,0.9,36,0.00,,,0.00,WUHU216HW,2013-04-26 00:52:00,
2013-04-25 20:57:00,49.3,23.9,30.07,NW,315,1.1,2.0,37,0.00,,,0.00,WUHU216HW,2013-04-26 00:57:00,
2013-04-25 21:02:00,49.0,24.3,30.07,NW,315,0.9,2.5,38,0.00,,,0.00,WUHU216HW,2013-04-26 01:02:00,
2013-04-25 21:07:00,48.6,24.0,30.07,NW,315,2.5,2.5,38,0.00,,,0.00,WUHU216HW,2013-04-26 01:07:00,
2013-04-25 21:12:00,48.1,24.2,30.07,NNW,338,1.1,2.5,39,0.00,,,0.00,WUHU216HW,2013-04-26 01:12:00,
2013-04-25 21:17:00,47.7,23.9,30.08,NW,315,0.4,2.5,39,0.00,,,0.00,WUHU216HW,2013-04-26 01:17:00,
2013-04-25 21:22:00,47.7,23.2,30.09,WNW,293,0.0,1.8,38,0.00,,,0.00,WUHU216HW,2013-04-26 01:22:00,
2013-04-25 21:27:00,47.5,23.7,30.09,WNW,293,1.1,1.3,39,0.00,,,0.00,WUHU216HW,2013-04-26 01:27:00,
2013-04-25 21:32:00,47.2,24.0,30.09,NNW,338,0.0,1.3,40,0.00,,,0.00,WUHU216HW,2013-04-26 01:32:00,
2013-04-25 21:37:00,46.8,23.8,30.09,NNW,338,0.0,1.1,40,0.00,,,0.00,WUHU216HW,2013-04-26 01:37:00,
2013-04-25 21:42:00,46.4,23.4,30.09,WNW,293,0.0,0.0,40,0.00,,,0.00,WUHU216HW,2013-04-26 01:42:00,
2013-04-25 21:47:00,46.1,24.1,30.09,NW,315,0.9,1.8,42,0.00,,,0.00,WUHU216HW,2013-04-26 01:47:00,
2013-04-25 21:52:00,45.7,23.9,30.10,WNW,293,0.0,1.8,42,0.00,,,0.00,WUHU216HW,2013-04-26 01:52:00,
2013-04-25 21:57:00,45.5,23.7,30.10,WNW,293,0.0,1.3,42,0.00,,,0.00,WUHU216HW,2013-04-26 01:57:00,
2013-04-25 22:02:00,45.4,24.0,30.10,WNW,293,0.0,0.7,43,0.00,,,0.00,WUHU216HW,2013-04-26 02:02:00,
2013-04-25 22:07:00,45.0,23.8,30.10,WNW,293,0.0,0.7,43,0.00,,,0.00,WUHU216HW,2013-04-26 02:07:00,
2013-04-25 22:12:00,44.8,24.1,30.10,WNW,293,0.0,2.0,44,0.00,,,0.00,WUHU216HW,2013-04-26 02:12:00,
2013-04-25 22:17:00,44.6,23.9,30.11,NW,315,0.2,2.0,44,0.00,,,0.00,WUHU216HW,2013-04-26 02:17:00,
2013-04-25 22:22:00,44.3,23.6,30.11,West,270,0.0,0.4,44,0.00,,,0.00,WUHU216HW,2013-04-26 02:22:00,
2013-04-25 22:27:00,44.3,24.1,30.11,WNW,293,0.0,1.6,45,0.00,,,0.00,WUHU216HW,2013-04-26 02:27:00,
2013-04-25 22:32:00,43.9,24.4,30.11,NW,315,0.0,1.6,46,0.00,,,0.00,WUHU216HW,2013-04-26 02:32:00,
2013-04-25 22:37:00,43.6,24.0,30.11,WNW,293,0.7,1.3,46,0.00,,,0.00,WUHU216HW,2013-04-26 02:37:00,
2013-04-25 22:42:00,43.6,24.6,30.11,NW,315,0.9,1.3,47,0.00,,,0.00,WUHU216HW,2013-04-26 02:42:00,
2013-04-25 22:47:00,43.4,24.4,30.11,WNW,293,0.0,1.3,47,0.00,,,0.00,WUHU216HW,2013-04-26 02:47:00,
2013-04-25 22:52:00,43.0,24.1,30.11,WNW,293,0.0,1.3,47,0.00,,,0.00,WUHU216HW,2013-04-26 02:52:00,
2013-04-25 22:57:00,42.8,24.5,30.11,NW,315,0.0,0.0,48,0.00,,,0.00,WUHU216HW,2013-04-26 02:57:00,
2013-04-25 23:02:00,42.7,25.4,30.11,NNE,23,1.1,1.1,50,0.00,,,0.00,WUHU216HW,2013-04-26 03:02:00,
2013-04-25 23:07:00,42.3,24.5,30.11,NNE,23,0.0,1.1,49,0.00,,,0.00,WUHU216HW,2013-04-26 03:07:00,
2013-04-25 23:12:00,42.3,24.5,30.11,NNE,23,0.0,1.1,49,0.00,,,0.00,WUHU216HW,2013-04-26 03:12:00,
2013-04-25 23:17:00,42.3,24.5,30.11,NNE,23,0.4,1.1,49,0.00,,,0.00,WUHU216HW,2013-04-26 03:17:00,
2013-04-25 23:22:00,42.3,24.5,30.11,NNE,23,0.0,1.1,49,0.00,,,0.00,WUHU216HW,2013-04-26 03:22:00,
2013-04-25 23:27:00,42.1,24.3,30.11,NNE,23,0.0,0.4,49,0.00,,,0.00,WUHU216HW,2013-04-26 03:27:00,
2013-04-25 23:32:00,42.1,24.3,30.11,NNE,23,0.0,0.0,49,0.00,,,0.00,WUHU216HW,2013-04-26 03:32:00,
2013-04-25 23:37:00,41.9,24.1,30.11,NNE,23,0.0,0.0,49,0.00,,,0.00,WUHU216HW,2013-04-26 03:37:00,
2013-04-25 23:42:00,41.6,23.8,30.11,NNE,23,0.0,0.0,49,0.00,,,0.00,WUHU216HW,2013-04-26 03:42:00,
2013-04-25 23:47:00,41.4,24.1,30.11,NNE,23,0.0,0.4,50,0.00,,,0.00,WUHU216HW,2013-04-26 03:47:00,
2013-04-25 23:52:00,41.0,24.2,30.12,WSW,248,0.0,1.1,51,0.00,,,0.00,WUHU216HW,2013-04-26 03:52:00,
2013-04-25 23:57:00,40.9,24.0,30.12,WSW,248,0.0,1.1,51,0.00,,,0.00,WUHU216HW,2013-04-26 03:57:00,